User: anonymous   Login
Location: Campillo
(40.8621°N, 4.2488°W)
Time: 07:19:42
(UTC+00:00)
Language:

USA 245 - Orbit

View from above orbital plane
View from above orbital plane
View from above satellite
View from above satellite

Ground track
Ground track

The orbit data is extracted from the following two-line orbital elements,

1 39232U 13043A   21214.80015280 0.00013552  00000-0  13961-3 0    06
2 39232  97.8791 277.0668 0505092 137.2416 222.7582 14.82604790    02
Epoch (UTC): 02 August 2021 19:12:13
Eccentricity: 0.0505092
inclination: 97.8791°
perigee height: 267 km
apogee height: 974 km
right ascension of ascending node: 277.0668°
argument of perigee: 137.2416°
revolutions per day: 14.82604790
mean anomaly at epoch: 222.7582°
orbit number at epoch: 0

The dashed part of the orbit path shows where the satellite is in the earth's shadow,  

DLR